DW1065 Weather Reports


Display with metric or nautical units.
time (UTC)temp
F
wind
direction
speed
MPH
gust
MPH
rain 1hr
in
rain 24hr
in
rain mn
in
humidity
%
barometer
mb
20260506221006 37 258 0.0 0.0 0.00 9.24 0.00 67 1008.7
20260506220508 38 258 0.0 0.0 0.00 9.32 0.00 67 1008.7
20260506215505 38 259 0.0 0.0 0.00 9.48 0.00 66 1008.6
20260506215007 38 256 0.0 0.0 0.00 9.56 0.00 65 1008.5
20260506214006 39 255 0.0 0.0 0.00 9.80 0.00 64 1008.4
20260506213506 39 258 0.0 0.0 0.00 9.92 0.00 64 1008.3
20260506213008 39 260 0.0 1.0 0.00 1.00 0.00 64 1008.2
20260506212506 39 260 0.0 1.0 0.00 1.01 0.00 64 1008.2
20260506212006 40 256 0.0 0.0 0.00 1.02 0.00 63 1008.1
20260506211506 40 262 0.0 0.0 0.00 1.03 0.00 62 1008.0
20260506210506 40 258 0.0 0.0 0.00 1.06 0.00 60 1008.0
20260506210007 41 259 0.0 0.0 0.00 1.07 0.00 60 1007.9
20260506205506 41 260 0.0 0.0 0.00 1.08 0.00 59 1007.9
20260506205007 41 260 0.0 0.0 0.00 1.09 0.00 58 1008.0
20260506204006 42 257 0.0 2.0 0.00 1.12 0.00 58 1007.8
20260506203009 43 259 0.0 0.0 0.00 1.14 0.00 56 1007.8
20260506202005 44 263 0.0 0.0 0.00 1.15 9.36 55 1007.8
20260506201505 44 260 0.0 0.0 0.00 1.16 9.36 54 1007.8
20260506201006 44 258 0.0 0.0 0.00 1.17 9.36 53 1007.8
20260506200505 45 261 0.0 0.0 0.00 1.18 9.36 53 1007.8
20260506200006 45 258 0.0 1.0 0.02 1.19 9.36 53 1007.8
20260506195504 45 258 0.0 1.0 0.06 1.21 9.36 53 1007.8
20260506195005 46 257 0.0 0.0 0.08 1.21 9.36 52 1007.8
20260506194506 46 258 0.0 0.0 0.14 1.23 9.36 51 1007.8
20260506194004 46 260 0.0 0.0 0.14 1.24 9.36 51 1007.7
20260506193006 47 259 0.0 0.0 0.20 1.28 9.36 49 1007.6
20260506192504 48 257 0.0 0.0 0.20 1.29 9.36 49 1007.6
20260506191505 48 256 0.0 1.0 0.20 1.32 9.36 49 1007.6
20260506191004 49 258 0.0 0.0 0.20 1.33 9.36 48 1007.7
20260506185504 -6 263 0.0 2.0 0.14 1.36 9.30 44 1007.6
20260506185004 50 254 0.0 2.0 0.12 1.37 9.28 44 1007.5
20260506184505 15 347 0.0 0.0 0.06 1.37 9.22 43 1007.5
20260506184005 -7 0 0.0 0.0 0.06 1.38 9.22 85 1007.4
20260506183504 -6 0 0.0 0.0 0.06 1.40 9.22 85 1007.3
20260506183005 29 0 0.0 0.0 0.00 1.40 9.16 85 1007.3
20260506182005 29 0 0.0 0.0 0.00 1.43 9.16 85 1007.2
20260506181005 29 0 0.0 0.0 0.00 1.45 9.16 85 1007.1
20260506180006 29 0 0.0 0.0 0.00 1.47 9.16 85 1007.1
20260506175505 29 0 0.0 0.0 0.00 1.48 9.16 85 1007.1
20260506175005 29 0 0.0 0.0 0.00 1.50 9.16 85 1007.0
20260506174506 29 0 0.0 0.0 0.00 1.51 9.16 85 1007.0
20260506174004 29 0 0.0 0.0 0.00 1.52 9.16 85 1007.0
20260506173504 29 0 0.0 0.0 0.00 1.53 9.16 85 1006.9
20260506173005 29 0 0.0 0.0 0.00 1.54 9.16 85 1007.0
20260506172504 29 0 0.0 0.0 0.00 1.55 9.16 85 1007.0
20260506172004 29 0 0.0 0.0 0.00 1.57 9.16 85 1007.0
20260506171505 29 0 0.0 0.0 0.00 1.58 9.16 85 1007.0
20260506171005 29 0 0.0 0.0 0.00 1.59 9.16 85 1007.0